FW5295 Weather Reports


time (UTC)temp
F
wind
direction
speed
knots
gust
knots
rain 1hr
in
rain 24hr
in
rain mn
in
humidity
%
barometer
mb
20260903121724 76 244 1.7 3.5 0.00 0.00 0.00 89 1013.3
20260903121713 76 236 1.7 2.6 0.00 0.00 0.00 89 1013.3
20260903120943 76 235 1.7 2.6 0.00 0.00 0.00 89 1013.3
20260903120234 76 230 1.7 3.5 0.00 0.00 0.00 89 1013.3
20260903115721 75 222 1.7 3.5 0.00 0.00 0.00 90 1013.3
20260903115220 75 222 1.7 3.5 0.00 0.00 0.00 90 1013.3
20260903114718 75 228 2.6 3.5 0.00 0.00 0.00 90 1013.7
20260903114218 75 233 1.7 2.6 0.00 0.00 0.00 90 1013.7
20260903113718 75 249 0.9 2.6 0.00 0.00 0.00 90 1013.3
20260903113217 75 248 1.7 2.6 0.00 0.00 0.00 90 1013.3
20260903112732 75 225 1.7 3.5 0.00 0.00 0.00 90 1013.3
20260903112215 75 218 1.7 3.5 0.00 0.00 0.00 90 1013.3
20260903111717 75 235 2.6 3.5 0.00 0.00 0.00 90 1013.3
20260903111216 75 216 1.7 3.5 0.00 0.00 0.00 90 1013.3
20260903110936 75 212 1.7 2.6 0.00 0.00 0.00 90 1013.3
20260903110213 76 212 0.0 3.5 0.00 0.00 0.00 89 1013.3
20260903105714 76 232 2.6 2.6 0.00 0.00 0.00 89 1013.3
20260903105432 76 236 0.9 2.6 0.00 0.00 0.00 89 1013.7
20260903104712 76 226 1.7 3.5 0.00 0.00 0.00 89 1013.3
20260903104441 76 235 0.9 3.5 0.00 0.00 0.00 89 1012.9
20260903103712 76 228 1.7 2.6 0.00 0.00 0.00 90 1012.9
20260903103436 76 262 0.9 3.5 0.00 0.00 0.00 90 1012.9
20260903102711 76 229 0.9 3.5 0.00 0.00 0.00 90 1012.9
20260903102210 76 235 2.6 3.5 0.00 0.00 0.00 90 1012.9
20260903102151 76 229 1.7 3.5 0.00 0.00 0.00 90 1012.9
20260903101208 76 228 1.7 2.6 0.00 0.00 0.00 90 1013.3
20260903100710 76 198 1.7 2.6 0.00 0.00 0.00 90 1012.9
20260903100207 76 225 1.7 2.6 0.00 0.00 0.00 90 1013.3
20260903095708 76 210 1.7 2.6 0.00 0.00 0.00 90 1012.9
20260903095425 76 234 1.7 2.6 0.00 0.00 0.00 90 1012.9
20260903094707 76 251 0.9 2.6 0.00 0.00 0.00 90 1012.9
20260903094205 76 235 1.7 2.6 0.00 0.00 0.00 90 1012.9
20260903093705 76 228 1.7 1.7 0.00 0.00 0.00 90 1012.9
20260903093206 76 240 0.0 1.7 0.00 0.00 0.00 90 1012.9
20260903092930 76 249 0.0 1.7 0.00 0.00 0.00 89 1012.9
20260903092425 76 231 0.9 1.7 0.00 0.00 0.00 89 1012.9
20260903092042 76 219 0.0 1.7 0.00 0.00 0.00 89 1012.9
20260903091930 76 220 0.9 1.7 0.00 0.00 0.00 89 1012.9
20260903090921 77 193 0.0 1.7 0.00 0.00 0.00 88 1012.9
20260903090201 77 231 0.0 1.7 0.00 0.00 0.00 88 1012.9
20260903085923 77 224 0.0 1.7 0.00 0.00 0.00 88 1012.9
20260903085201 77 259 0.0 1.7 0.00 0.00 0.00 88 1012.9
20260903084928 77 240 0.0 2.6 0.00 0.00 0.00 88 1012.9
20260903084201 77 220 0.9 2.6 0.00 0.00 0.00 88 1012.9
20260903083919 77 308 0.9 1.7 0.00 0.00 0.00 88 1012.9
20260903083200 77 308 0.9 2.6 0.00 0.00 0.00 88 1012.9
20260903082918 77 248 0.9 2.6 0.00 0.00 0.00 88 1012.9
20260903082647 77 245 1.7 2.6 0.00 0.00 0.00 88 1012.5
20260903081657 78 237 0.9 2.6 0.00 0.00 0.00 88 1012.9
20260903081156 78 224 1.7 2.6 0.00 0.00 0.00 88 1012.5
20260903080655 78 231 1.7 2.6 0.00 0.00 0.00 88 1012.5
20260903080157 78 227 1.7 2.6 0.00 0.00 0.00 88 1012.5
20260903075655 78 233 1.7 2.6 0.00 0.00 0.00 88 1012.9
20260903075157 78 225 0.0 1.7 0.00 0.00 0.00 88 1012.9
20260903074916 78 190 1.7 1.7 0.00 0.00 0.00 88 1012.9
20260903074153 78 231 0.0 1.7 0.00 0.00 0.00 88 1012.5
20260903073653 78 250 0.9 1.7 0.00 0.00 0.00 88 1012.9
20260903073152 78 241 0.0 1.7 0.00 0.00 0.00 88 1012.9
20260903072653 78 221 0.9 1.7 0.00 0.00 0.00 88 1012.5
20260903072153 78 204 0.9 1.7 0.00 0.00 0.00 88 1012.9
20260903071652 78 231 1.7 3.5 0.00 0.00 0.00 88 1012.5
20260903071151 78 240 1.7 3.5 0.00 0.00 0.00 88 1012.9
20260903070908 78 235 0.9 3.5 0.00 0.00 0.00 88 1012.9
20260903070149 78 243 0.9 3.5 0.00 0.00 0.00 89 1012.9
20260903065650 78 229 1.7 1.7 0.00 0.00 0.00 89 1012.9
20260903065149 78 226 1.7 1.7 0.00 0.00 0.00 89 1012.9
20260903064648 79 251 1.7 2.6 0.00 0.00 0.00 88 1012.9
20260903064148 79 251 0.9 2.6 0.00 0.00 0.00 88 1012.9
20260903063647 79 242 2.6 3.5 0.00 0.00 0.00 88 1013.3
20260903063146 79 239 0.9 3.5 0.00 0.00 0.00 88 1013.3
20260903062646 79 245 1.7 2.6 0.00 0.00 0.00 88 1012.9
20260903062145 79 248 1.7 3.5 0.00 0.00 0.00 88 1012.9
20260903061659 79 259 1.7 3.5 0.00 0.00 0.00 89 1013.3
20260903061406 79 256 1.7 2.6 0.00 0.00 0.00 89 1012.9
20260903060643 79 232 2.6 2.6 0.00 0.00 0.00 89 1013.3
20260903060145 78 264 1.7 2.6 0.00 0.00 0.00 89 1013.3
20260903055644 79 256 1.7 2.6 0.00 0.00 0.00 89 1012.9
20260903055408 79 238 0.0 2.6 0.00 0.00 0.00 89 1012.9
20260903054642 79 257 0.9 2.6 0.00 0.00 0.00 89 1012.9
20260903054141 79 228 1.7 2.6 0.00 0.00 0.00 89 1012.9
20260903053642 79 246 1.7 2.6 0.00 0.00 0.00 89 1012.9
20260903053142 79 254 1.7 2.6 0.00 0.00 0.00 89 1012.9
20260903052859 79 237 1.7 2.6 0.00 0.00 0.00 89 1012.9
20260903052140 79 247 1.7 2.6 0.00 0.00 0.00 89 1013.3
20260903051640 79 248 1.7 3.5 0.00 0.00 0.00 89 1012.9
20260903051141 79 261 1.7 3.5 0.00 0.00 0.00 89 1013.3
20260903050638 79 267 1.7 2.6 0.00 0.00 0.00 89 1012.9
20260903050407 79 262 1.7 2.6 0.00 0.00 0.00 89 1013.3
20260903045638 79 256 2.6 2.6 0.00 0.00 0.00 89 1013.3
20260903045137 79 266 1.7 2.6 0.00 0.00 0.00 89 1013.3
20260903044637 79 260 1.7 1.7 0.00 0.00 0.00 90 1012.9
20260903044136 79 246 1.7 1.7 0.00 0.00 0.00 90 1012.9
20260903043636 79 241 0.9 2.6 0.00 0.00 0.00 90 1012.9
20260903043136 79 193 0.0 2.6 0.00 0.00 0.00 90 1012.9
20260903042640 79 233 0.9 3.5 0.00 0.00 0.00 90 1012.9
20260903042134 79 250 1.7 3.5 0.00 0.00 0.00 90 1012.9
20260903041633 79 249 0.9 1.7 0.00 0.00 0.00 90 1012.9
20260903041133 79 249 1.7 1.7 0.00 0.00 0.00 90 1012.9
20260903040646 79 269 0.9 1.7 0.00 0.00 0.00 90 1012.9
20260903040144 79 248 1.7 1.7 0.00 0.00 0.00 90 1012.9
20260903035633 79 267 1.7 1.7 0.00 0.00 0.00 90 1012.5
20260903035129 79 233 0.0 1.7 0.00 0.00 0.00 90 1012.9
20260903034854 79 225 0.9 1.7 0.00 0.00 0.00 90 1012.9
20260903034129 79 244 1.7 1.7 0.00 0.00 0.00 90 1012.9
20260903033629 79 258 0.0 1.7 0.00 0.00 0.00 90 1012.9
20260903033129 79 257 0.9 2.6 0.00 0.00 0.00 90 1013.3
20260903032628 79 269 0.0 2.6 0.00 0.00 0.00 91 1012.9
20260903032127 79 259 1.7 2.6 0.00 0.00 0.00 91 1012.9
20260903031628 79 263 1.7 1.7 0.00 0.00 0.00 91 1012.9
20260903031126 78 245 0.9 2.6 0.00 0.00 0.00 92 1012.9
20260903030628 78 254 1.7 2.6 0.00 0.00 0.00 92 1012.9
20260903030126 78 257 0.9 1.7 0.00 0.00 0.00 92 1012.9
20260903030103 78 258 0.9 2.6 0.00 0.00 0.00 92 1012.9
20260903025126 79 265 0.9 2.6 0.00 0.00 0.00 92 1012.9
20260903024626 79 260 1.7 1.7 0.00 0.00 0.00 91 1012.9
20260903024123 79 269 0.0 1.7 0.00 0.00 0.00 91 1012.9
20260903023622 79 262 0.9 1.7 0.00 0.00 0.00 91 1012.5
20260903023347 79 260 1.7 2.6 0.00 0.00 0.00 91 1012.9
20260903022621 79 263 1.7 2.6 0.00 0.00 0.00 90 1012.9
20260903022121 79 269 0.0 1.7 0.00 0.00 0.00 90 1012.9
20260903021621 80 267 0.9 1.7 0.00 0.00 0.00 89 1012.5
20260903021122 80 253 0.0 1.7 0.00 0.00 0.00 89 1012.9
20260903020847 80 255 0.0 1.7 0.00 0.00 0.00 88 1012.5
20260903020134 80 280 0.9 1.7 0.00 0.00 0.00 87 1012.9
20260903015619 80 301 0.0 1.7 0.00 0.00 0.00 87 1012.5
20260903015120 81 296 0.9 1.7 0.00 0.00 0.00 87 1012.5
20260903014620 81 306 1.7 1.7 0.00 0.00 0.00 86 1012.5
20260903014339 81 269 1.7 1.7 0.00 0.00 0.00 85 1012.5
20260903013619 81 269 0.0 1.7 0.00 0.00 0.00 85 1012.2
20260903013118 82 239 0.9 1.7 0.00 0.00 0.00 84 1012.2
20260903012617 82 247 1.7 1.7 0.00 0.00 0.00 84 1012.2
20260903012116 82 230 1.7 1.7 0.00 0.00 0.00 83 1012.2
20260903011836 82 241 0.9 1.7 0.00 0.00 0.00 83 1012.2
20260903011115 82 242 1.7 1.7 0.00 0.00 0.00 82 1012.2
20260903010614 83 241 0.9 1.7 0.00 0.00 0.00 81 1011.9
20260903010117 83 279 0.0 1.7 0.00 0.00 0.00 81 1011.9
20260903005612 83 269 0.0 1.7 0.00 0.00 0.00 80 1012.2
20260903005114 83 242 1.7 2.6 0.00 0.00 0.00 79 1011.9
20260903004613 84 208 0.0 2.6 0.00 0.00 0.00 79 1011.9
20260903004114 84 219 0.9 2.6 0.00 0.00 0.00 79 1011.9
20260903003833 84 241 0.9 3.5 0.00 0.00 0.00 78 1011.9
20260903003118 84 266 1.7 2.6 0.00 0.00 0.00 78 1011.9
20260903002610 85 237 0.9 2.6 0.00 0.00 0.00 77 1011.5
20260903002116 85 218 0.0 1.7 0.00 0.00 0.00 77 1011.5
20260903001610 85 237 1.7 1.7 0.00 0.00 0.00 77 1011.9
20260903001109 85 249 1.7 2.6 0.00 0.00 0.00 77 1011.9
20260903000609 86 229 1.7 2.6 0.00 0.00 0.00 76 1011.9
20260903000120 86 250 0.9 3.5 0.00 0.00 0.00 76 1011.9
20260902235608 86 244 1.7 3.5 0.00 0.00 0.00 76 1011.9
20260902235335 86 244 2.6 2.6 0.00 0.00 0.00 76 1011.9
20260902234608 86 243 1.7 2.6 0.00 0.00 0.00 77 1011.9
20260902234104 87 253 1.7 1.7 0.00 0.00 0.00 77 1011.9
20260902233607 87 216 0.0 2.6 0.00 0.00 0.00 76 1011.5
20260902233105 87 140 1.7 2.6 0.00 0.00 0.00 76 1011.9
20260902232607 87 265 0.9 1.7 0.00 0.00 0.00 75 1011.9
20260902232103 87 266 0.0 2.6 0.00 0.00 0.00 75 1011.9
20260902231603 87 266 1.7 2.6 0.00 0.00 0.00 74 1012.2
20260902231103 88 237 0.9 2.6 0.00 0.00 0.00 74 1011.9
20260902230601 88 231 1.7 2.6 0.00 0.00 0.00 73 1012.2
20260902230108 88 269 0.9 3.5 0.00 0.00 0.00 72 1011.9
20260902225601 88 253 1.7 3.5 0.00 0.00 0.00 72 1012.2
20260902225059 88 245 1.7 2.6 0.00 0.00 0.00 72 1012.2
20260902224600 88 261 1.7 2.6 0.00 0.00 0.00 73 1012.2
20260902224100 88 272 1.7 2.6 0.00 0.00 0.00 73 1012.2
20260902223559 88 264 1.7 3.5 0.00 0.00 0.00 72 1012.2
20260902223057 89 261 1.7 3.5 0.00 0.00 0.00 71 1012.5
20260902222558 89 268 1.7 4.3 0.00 0.00 0.00 70 1012.5
20260902222057 89 258 1.7 4.3 0.00 0.00 0.00 69 1012.2
20260902221558 89 274 0.9 3.5 0.00 0.00 0.00 69 1012.2
20260902221326 89 257 1.7 4.3 0.00 0.00 0.00 67 1012.2
20260902220556 90 280 1.7 5.2 0.00 0.00 0.00 66 1012.2
20260902220108 90 277 2.6 5.2 0.00 0.00 0.00 65 1012.2
20260902215554 90 268 1.7 5.2 0.00 0.00 0.00 66 1012.5
20260902215055 90 272 3.5 5.2 0.00 0.00 0.00 66 1012.2
20260902214554 90 261 1.7 5.2 0.00 0.00 0.00 66 1012.2
20260902214054 91 274 2.6 5.2 0.00 0.00 0.00 64 1012.5
20260902213552 91 259 2.6 6.1 0.00 0.00 0.00 65 1012.2
20260902213053 91 269 0.9 6.1 0.00 0.00 0.00 64 1012.2
20260902212816 91 244 2.6 6.1 0.00 0.00 0.00 65 1012.5
20260902212704 91 260 3.5 6.1 0.00 0.00 0.00 63 1012.5
20260902211818 91 257 3.5 7.0 0.00 0.00 0.00 65 1012.2
20260902211102 91 269 4.3 5.2 0.00 0.00 0.00 63 1012.2
20260902210550 91 274 1.7 5.2 0.00 0.00 0.00 64 1012.5
20260902210103 91 265 3.5 5.2 0.00 0.00 0.00 63 1012.9
20260902205550 91 235 3.5 5.2 0.00 0.00 0.00 64 1012.5
20260902205048 91 256 1.7 5.2 0.00 0.00 0.00 62 1012.5
20260902204547 91 233 1.7 4.3 0.00 0.00 0.00 63 1012.5
20260902204047 91 251 3.5 4.3 0.00 0.00 0.00 63 1012.5
20260902203546 92 277 1.7 5.2 0.00 0.00 0.00 63 1012.5
20260902203046 92 262 0.9 5.2 0.00 0.00 0.00 62 1012.5
20260902202545 92 258 3.5 4.3 0.00 0.00 0.00 64 1012.5
20260902202045 91 227 2.6 4.3 0.00 0.00 0.00 63 1012.9
20260902201545 91 234 2.6 6.1 0.00 0.00 0.00 61 1012.5
20260902201044 91 254 3.5 6.1 0.00 0.00 0.00 62 1012.5
20260902200543 91 242 3.5 6.1 0.00 0.00 0.00 65 1012.5
20260902200042 91 236 1.7 6.1 0.00 0.00 0.00 65 1012.5
20260902195803 91 255 5.2 5.2 0.00 0.00 0.00 63 1012.9
20260902195041 91 223 1.7 6.1 0.00 0.00 0.00 63 1012.9
20260902194543 91 248 4.3 6.1 0.00 0.00 0.00 58 1012.9
20260902194041 91 241 3.5 8.7 0.00 0.00 0.00 61 1012.9
20260902193541 91 246 5.2 5.2 0.00 0.00 0.00 66 1012.9
20260902193039 91 241 0.0 5.2 0.00 0.00 0.00 61 1012.9
20260902192540 91 236 1.7 5.2 0.00 0.00 0.00 61 1012.9
20260902192039 91 282 4.3 5.2 0.00 0.00 0.00 63 1013.3
20260902191537 91 242 3.5 5.2 0.00 0.00 0.00 65 1013.3
20260902191039 91 232 1.7 5.2 0.00 0.00 0.00 64 1013.3
20260902190538 91 213 1.7 5.2 0.00 0.00 0.00 68 1013.3
20260902190039 90 236 1.7 6.1 0.00 0.00 0.00 67 1013.3
20260902190025 91 266 1.7 7.8 0.00 0.00 0.00 68 1013.3
20260902185037 90 219 2.6 7.8 0.00 0.00 0.00 66 1012.9
20260902184537 90 237 1.7 4.3 0.00 0.00 0.00 67 1013.3
20260902184035 90 194 1.7 5.2 0.00 0.00 0.00 69 1013.3
20260902183533 90 226 3.5 6.1 0.00 0.00 0.00 69 1013.3
20260902183035 90 256 3.5 6.1 0.00 0.00 0.00 68 1013.3
20260902183021 90 236 1.7 5.2 0.00 0.00 0.00 68 1013.3
20260902182032 90 257 1.7 6.1 0.00 0.00 0.00 68 1013.3
20260902181533 89 234 2.6 6.1 0.00 0.00 0.00 69 1013.7
20260902181031 89 255 1.7 6.1 0.00 0.00 0.00 68 1013.3
20260902180531 89 241 3.5 6.1 0.00 0.00 0.00 67 1013.3
20260902180031 89 250 3.5 6.1 0.00 0.00 0.00 69 1013.3
20260902175529 89 259 3.5 6.1 0.00 0.00 0.00 68 1013.3
20260902175029 89 235 3.5 5.2 0.00 0.00 0.00 68 1013.7
20260902174529 88 233 3.5 5.2 0.00 0.00 0.00 70 1013.3
20260902174029 88 238 1.7 4.3 0.00 0.00 0.00 71 1013.3
20260902173749 87 259 1.7 5.2 0.00 0.00 0.00 70 1013.7
20260902173028 87 233 2.6 5.2 0.00 0.00 0.00 70 1013.7
20260902172751 88 234 3.5 5.2 0.00 0.00 0.00 67 1013.7
20260902172025 88 245 3.5 5.2 0.00 0.00 0.00 69 1013.7
20260902171527 88 231 3.5 5.2 0.00 0.00 0.00 72 1013.7
20260902171026 88 234 2.6 5.2 0.00 0.00 0.00 71 1013.7
20260902170525 87 253 2.6 6.1 0.00 0.00 0.00 71 1013.7
20260902170024 87 259 1.7 6.1 0.00 0.00 0.00 69 1013.7
20260902165525 87 213 1.7 3.5 0.00 0.00 0.00 70 1013.7
20260902165024 87 261 0.9 4.3 0.00 0.00 0.00 69 1014.0
20260902164524 87 235 2.6 4.3 0.00 0.00 0.00 70 1013.7
20260902164037 87 195 3.5 5.2 0.00 0.00 0.00 73 1014.0
20260902163521 87 220 2.6 5.2 0.00 0.00 0.00 71 1013.7
20260902163020 86 233 2.6 4.3 0.00 0.00 0.00 73 1013.7
20260902162521 86 235 2.6 4.3 0.00 0.00 0.00 72 1014.0
20260902162022 86 254 3.5 4.3 0.00 0.00 0.00 71 1014.0
20260902161520 85 211 2.6 4.3 0.00 0.00 0.00 74 1014.0
20260902161245 85 237 1.7 4.3 0.00 0.00 0.00 73 1014.0
20260902160518 85 259 1.7 4.3 0.00 0.00 0.00 74 1014.0
20260902160020 84 227 1.7 3.5 0.00 0.00 0.00 75 1014.0
20260902155519 84 266 3.5 3.5 0.00 0.00 0.00 75 1014.0
20260902155018 84 240 1.7 3.5 0.00 0.00 0.00 74 1014.0
20260902154519 84 213 2.6 3.5 0.00 0.00 0.00 77 1014.0
20260902154018 83 216 2.6 4.3 0.00 0.00 0.00 75 1013.7
20260902153746 83 242 2.6 4.3 0.00 0.00 0.00 77 1014.0
20260902153106 83 274 3.5 4.3 0.00 0.00 0.00 76 1014.0
20260902152515 83 239 2.6 4.3 0.00 0.00 0.00 75 1014.0
20260902152014 83 207 2.6 3.5 0.00 0.00 0.00 75 1014.0
20260902151514 82 249 2.6 3.5 0.00 0.00 0.00 76 1014.3
20260902151014 82 251 2.6 2.6 0.00 0.00 0.00 79 1014.3
20260902150739 82 250 2.6 2.6 0.00 0.00 0.00 77 1014.3
20260902150011 81 242 0.9 2.6 0.00 0.00 0.00 77 1014.3
20260902145513 81 304 0.9 3.5 0.00 0.00 0.00 79 1014.3
20260902145012 81 275 0.0 4.3 0.00 0.00 0.00 79 1014.7
20260902144511 80 21 0.0 4.3 0.00 0.00 0.00 79 1014.3
20260902144009 80 265 0.0 2.6 0.00 0.00 0.00 81 1014.3
20260902143510 80 225 1.7 2.6 0.00 0.00 0.00 80 1014.3
20260902143009 80 255 0.0 3.5 0.00 0.00 0.00 80 1014.3
20260902142511 79 314 1.7 3.5 0.00 0.00 0.00 81 1014.7
20260902142010 79 206 0.9 2.6 0.00 0.00 0.00 84 1014.3
20260902141508 79 307 0.9 2.6 0.00 0.00 0.00 83 1014.3
20260902141006 79 289 0.9 2.6 0.00 0.00 0.00 83 1014.3
20260902140735 78 219 0.9 4.3 0.00 0.00 0.00 84 1014.3
20260902140006 78 290 0.0 4.3 0.00 0.00 0.00 83 1014.7
20260902135504 78 169 2.6 3.5 0.00 0.00 0.00 84 1014.3
20260902135004 78 357 1.7 2.6 0.00 0.00 0.00 84 1014.7
20260902134507 78 238 0.9 3.5 0.00 0.00 0.00 84 1014.3
20260902134005 78 185 0.9 4.3 0.00 0.00 0.00 83 1014.3
20260902133503 78 323 3.5 4.3 0.00 0.00 0.00 83 1014.7
20260902133003 78 250 1.7 5.2 0.00 0.00 0.00 84 1014.3
20260902132730 78 251 0.0 5.2 0.00 0.00 0.00 84 1014.7
20260902132001 77 266 2.6 3.5 0.00 0.00 0.00 84 1014.3
20260902131502 77 249 2.6 3.5 0.00 0.00 0.00 85 1014.3
20260902131000 77 215 1.7 3.5 0.00 0.00 0.00 85 1014.3
20260902130500 76 165 0.9 3.5 0.00 0.00 0.00 85 1014.3
20260902125958 76 255 0.9 3.5 0.00 0.00 0.00 85 1014.3
20260902125459 76 236 3.5 3.5 0.00 0.00 0.00 86 1014.3
20260902124959 76 240 1.7 3.5 0.00 0.00 0.00 86 1014.3
20260902124459 75 232 1.7 4.3 0.00 0.00 0.00 86 1014.3
20260902124216 75 243 2.6 4.3 0.00 0.00 0.00 86 1014.3
20260902123458 75 260 1.7 3.5 0.00 0.00 0.00 86 1014.3
20260902123221 75 238 1.7 3.5 0.00 0.00 0.00 86 1014.3
20260902122456 75 269 0.9 3.5 0.00 0.00 0.00 86 1014.0